• In Netherlands
  • List of Countries
  • For 7 days
  • Water Temperature
  • Satellite Maps
  • Weather Map
  • Weather Widgets
  • user-avatar
    Login

    Hourly Weather Jewłach

    Today, 21 January, Saturday

    Time Temperature Precipitation Wind Pressure Humidity
    00:00 +1°C° 0 mm 1 mps 768 mmHg 90%
    01:00 +1°C° 0 mm 1 mps 768 mmHg 88%
    02:00 +2°C° 0 mm 1 mps 768 mmHg 85%
    03:00 +1°C° 0 mm 2 mps 768 mmHg 83%
    04:00 -1°C° 0 mm 2 mps 767 mmHg 82%
    05:00 -1°C° 0 mm 2 mps 767 mmHg 80%
    06:00 -1°C° 0 mm 2 mps 767 mmHg 78%
    07:00 +1°C° 0 mm 2 mps 767 mmHg 72%
    08:00 +3°C° 0 mm 2 mps 767 mmHg 66%
    09:00 +4°C° 0 mm 2 mps 767 mmHg 60%
    10:00 +5°C° 0 mm 2 mps 767 mmHg 56%
    11:00 +6°C° 0 mm 2 mps 767 mmHg 52%
    12:00 +7°C° 0 mm 3 mps 766 mmHg 47%
    13:00 +7°C° 0 mm 3 mps 766 mmHg 47%
    14:00 +8°C° 0 mm 3 mps 766 mmHg 46%
    15:00 +8°C° 0 mm 3 mps 765 mmHg 46%
    16:00 +6°C° 0 mm 2 mps 766 mmHg 52%
    17:00 +4°C° 0 mm 2 mps 766 mmHg 58%
    18:00 +4°C° 0 mm 1 mps 766 mmHg 64%
    19:00 +2°C° 0 mm 2 mps 766 mmHg 64%
    20:00 +2°C° 0 mm 2 mps 766 mmHg 65%
    21:00 +2°C° 0 mm 2 mps 767 mmHg 65%
    22:00 +2°C° 0 mm 2 mps 767 mmHg 65%
    23:00 +2°C° 0 mm 2 mps 767 mmHg 64%

    Tomorrow, 22 January, Sunday

    Time Temperature Precipitation Wind Pressure Humidity
    00:00 0°C° 0 mm 3 mps 767 mmHg 64%
    01:00 0°C° 0 mm 3 mps 766 mmHg 63%
    02:00 0°C° 0 mm 3 mps 766 mmHg 62%
    03:00 -1°C° 0 mm 4 mps 766 mmHg 61%
    04:00 -1°C° 0 mm 4 mps 766 mmHg 60%
    05:00 -1°C° 0 mm 4 mps 766 mmHg 59%
    06:00 -1°C° 0 mm 5 mps 766 mmHg 58%
    07:00 0°C° 0 mm 5 mps 766 mmHg 54%
    08:00 +1°C° 0 mm 5 mps 766 mmHg 50%
    09:00 +1°C° 0 mm 5 mps 766 mmHg 46%
    10:00 +3°C° 0 mm 5 mps 766 mmHg 43%
    11:00 +5°C° 0 mm 5 mps 765 mmHg 39%
    12:00 +6°C° 0 mm 5 mps 765 mmHg 36%
    13:00 +6°C° 0 mm 5 mps 765 mmHg 36%
    14:00 +7°C° 0 mm 4 mps 765 mmHg 35%
    15:00 +7°C° 0 mm 4 mps 766 mmHg 35%
    16:00 +5°C° 0 mm 3 mps 767 mmHg 40%
    17:00 +5°C° 0 mm 2 mps 768 mmHg 45%
    18:00 +5°C° 0 mm 1 mps 769 mmHg 50%
    19:00 +4°C° 0 mm 1 mps 770 mmHg 52%
    20:00 +3°C° 0 mm 2 mps 770 mmHg 54%
    21:00 +3°C° 0 mm 2 mps 771 mmHg 56%
    22:00 +3°C° 0 mm 2 mps 772 mmHg 60%
    23:00 +2°C° 0 mm 2 mps 772 mmHg 64%

    Day after tomorrow, 23 January, Monday

    Time Temperature Precipitation Wind Pressure Humidity
    00:00 +2°C° 0 mm 2 mps 773 mmHg 68%
    01:00 +2°C° 0 mm 2 mps 773 mmHg 72%
    02:00 +1°C° 0 mm 2 mps 773 mmHg 75%
    03:00 +1°C° 0 mm 2 mps 774 mmHg 79%
    04:00 +1°C° 0 mm 2 mps 774 mmHg 81%
    05:00 -1°C° 0 mm 2 mps 774 mmHg 84%
    06:00 -1°C° 0 mm 2 mps 774 mmHg 86%
    07:00 -1°C° 0 mm 2 mps 774 mmHg 82%
    08:00 +2°C° 0 mm 1 mps 775 mmHg 79%
    09:00 +3°C° 0 mm 1 mps 775 mmHg 75%
    10:00 +4°C° 0 mm 1 mps 774 mmHg 70%
    11:00 +5°C° 0 mm 1 mps 774 mmHg 66%
    12:00 +6°C° 0 mm 1 mps 773 mmHg 61%
    13:00 +6°C° 0 mm 1 mps 773 mmHg 58%
    14:00 +6°C° 0 mm 2 mps 773 mmHg 56%
    15:00 +6°C° 0 mm 2 mps 772 mmHg 53%
    16:00 +6°C° 0 mm 1 mps 773 mmHg 59%
    17:00 +4°C° 0 mm 1 mps 773 mmHg 66%
    18:00 +3°C° 0 mm 1 mps 773 mmHg 72%
    19:00 +2°C° 0 mm 1 mps 774 mmHg 72%
    20:00 +2°C° 0 mm 1 mps 774 mmHg 73%
    21:00 +2°C° 0 mm 1 mps 774 mmHg 74%
    22:00 +2°C° 0 mm 1 mps 774 mmHg 75%
    23:00 +1°C° 0 mm 1 mps 774 mmHg 76%

    24 January, Tuesday

    Time Temperature Precipitation Wind Pressure Humidity
    00:00 0°C° 0 mm 0 mps 774 mmHg 77%
    01:00 0°C° 0 mm 0 mps 773 mmHg 77%
    02:00 0°C° 0 mm 0 mps 773 mmHg 77%
    03:00 0°C° 0 mm 0 mps 773 mmHg 77%
    04:00 0°C° 0 mm 0 mps 773 mmHg 77%
    05:00 0°C° 0 mm 0 mps 773 mmHg 76%
    06:00 +1°C° 0 mm 1 mps 773 mmHg 75%
    07:00 +2°C° 0 mm 1 mps 773 mmHg 67%
    08:00 +4°C° 0 mm 1 mps 773 mmHg 59%
    09:00 +6°C° 0 mm 1 mps 773 mmHg 51%
    10:00 +7°C° 0 mm 1 mps 772 mmHg 47%
    11:00 +8°C° 0 mm 1 mps 772 mmHg 43%
    12:00 +9°C° 0 mm 1 mps 771 mmHg 39%
    13:00 +9°C° 0 mm 1 mps 770 mmHg 38%
    14:00 +10°C° 0 mm 1 mps 770 mmHg 38%
    15:00 +10°C° 0 mm 1 mps 769 mmHg 37%
    16:00 +8°C° 0 mm 1 mps 769 mmHg 44%
    17:00 +6°C° 0 mm 1 mps 769 mmHg 51%
    18:00 +4°C° 0 mm 1 mps 769 mmHg 58%
    19:00 +3°C° 0 mm 1 mps 769 mmHg 58%
    20:00 +3°C° 0 mm 1 mps 769 mmHg 59%
    21:00 +3°C° 0 mm 1 mps 769 mmHg 59%
    22:00 +2°C° 0 mm 1 mps 768 mmHg 57%
    23:00 +2°C° 0 mm 1 mps 768 mmHg 56%

    25 January, Wednesday

    Time Temperature Precipitation Wind Pressure Humidity
    00:00 +2°C° 0 mm 1 mps 768 mmHg 55%
    01:00 +1°C° 0 mm 2 mps 767 mmHg 53%
    02:00 +1°C° 0 mm 2 mps 767 mmHg 51%
    03:00 +1°C° 0 mm 2 mps 766 mmHg 49%
    04:00 +1°C° 0 mm 2 mps 765 mmHg 48%
    05:00 +1°C° 0 mm 2 mps 765 mmHg 47%
    06:00 +1°C° 0 mm 2 mps 764 mmHg 46%
    07:00 +2°C° 0 mm 2 mps 764 mmHg 43%
    08:00 +3°C° 0 mm 3 mps 764 mmHg 40%
    09:00 +4°C° 0 mm 3 mps 763 mmHg 36%
    10:00 +7°C° 0 mm 3 mps 762 mmHg 33%
    11:00 +8°C° 0 mm 4 mps 761 mmHg 29%
    12:00 +10°C° 0 mm 4 mps 760 mmHg 25%
    13:00 +11°C° 0 mm 4 mps 760 mmHg 25%
    14:00 +11°C° 0 mm 4 mps 759 mmHg 24%
    15:00 +11°C° 0 mm 4 mps 759 mmHg 23%
    16:00 +8°C° 0 mm 4 mps 759 mmHg 26%
    17:00 +7°C° 0 mm 4 mps 760 mmHg 30%
    18:00 +5°C° 0 mm 4 mps 760 mmHg 33%
    19:00 +5°C° 0 mm 4 mps 760 mmHg 35%
    20:00 +5°C° 0 mm 4 mps 760 mmHg 36%
    21:00 +5°C° 0 mm 4 mps 760 mmHg 38%
    22:00 +4°C° 0 mm 3 mps 760 mmHg 40%
    23:00 +4°C° 0 mm 3 mps 760 mmHg 42%

    26 January, Thursday

    Time Temperature Precipitation Wind Pressure Humidity
    00:00 +4°C° 0 mm 3 mps 760 mmHg 44%
    01:00 +4°C° 0 mm 3 mps 760 mmHg 46%
    02:00 +3°C° 0 mm 3 mps 760 mmHg 49%
    03:00 +3°C° 0 mm 3 mps 760 mmHg 51%
    04:00 +4°C° 0 mm 2 mps 760 mmHg 53%
    05:00 +4°C° 0 mm 2 mps 760 mmHg 55%
    06:00 +3°C° 0 mm 2 mps 760 mmHg 57%
    07:00 +5°C° 0 mm 1 mps 760 mmHg 53%
    08:00 +6°C° 0 mm 1 mps 760 mmHg 50%
    09:00 +7°C° 0 mm 1 mps 761 mmHg 47%
    10:00 +8°C° 0 mm 1 mps 760 mmHg 45%
    11:00 +9°C° 0 mm 1 mps 760 mmHg 43%
    12:00 +8°C° 0 mm 2 mps 759 mmHg 42%
    13:00 +9°C° 0 mm 1 mps 759 mmHg 43%
    14:00 +9°C° 0 mm 1 mps 759 mmHg 44%
    15:00 +9°C° 0 mm 1 mps 759 mmHg 44%
    16:00 +8°C° 0.1 mm 1 mps 759 mmHg 50%
    17:00 +7°C° 0.1 mm 1 mps 760 mmHg 55%
    18:00 +6°C° 0.1 mm 1 mps 760 mmHg 60%
    19:00 +5°C° 0.1 mm 1 mps 760 mmHg 61%
    20:00 +5°C° 0.1 mm 1 mps 760 mmHg 63%
    21:00 +5°C° 0.1 mm 1 mps 761 mmHg 64%
    22:00 +5°C° 0.1 mm 1 mps 761 mmHg 66%
    23:00 +5°C° 0.1 mm 1 mps 761 mmHg 68%
    Show more